Regional Weather Roundup
Issued by NWS

Home | Current Version | Previous Version | Graphics & Text | Print | Product List | Glossary On
Versions: 1 2 3 4 5 6 7 8 9 10 11 12 13 14 15 16 17 18 19 20 21 22 23 24 25 26 27 28 29 30 31 32 33 34 35 36 37 38 39 40 41 42 43 44 45 46 47 48 49 50
000
ASUS45 KTFX 221204
RWRMT
MONTANA HOURLY WEATHER ROUNDUP
NATIONAL WEATHER SERVICE GREAT FALLS MT
604 AM MDT WED OCT 22 2014

NOTE: "FAIR" INDICATES FEW OR NO CLOUDS BELOW 12000 FEET WITH NO
SIGNIFICANT WEATHER AND/OR OBSTRUCTIONS TO VISIBILITY.

* THESE STATIONS ARE NOT UNDER NWS QUALITY CONTROL. THEY DO NOT
   REPORT WEATHER SUCH AS PRECIPITATION OR FOG.

MTZ001>007-043-221300-
WEST OF THE DIVIDE
CITY           SKY/WX    TMP DP  RH WIND       PRES   REMARKS
KALISPELL      PTCLDY    34  30  85 SW7       30.02R WCI  28
MISSOULA       FOG       36  36 100 SW3       30.08R VSB M1/4
BUTTE          CLEAR     32  28  85 CALM      30.09R
MULLAN PASS    FOG       32  32 100 S9        30.00F VSB 1 1/4 WCI  24
* ESSEX        N/A       40  39  96 N/A        N/A
* LINCOLN      N/A       39  35  86 SW4G11     N/A
* POLSON       N/A       36  36 100 SE1        N/A
* RONAN APT    CLEAR     34  30  85 N/A        N/A
* SEELEY LAKE  N/A       33  32  96 N/A        N/A
* THOMP F APT  CLEAR     29  27  92 NE3        N/A
$$

MTZ008-052>055-221300-
SOUTHWEST MONTANA
CITY           SKY/WX    TMP DP  RH WIND       PRES   REMARKS
BOZEMAN        CLEAR     30  28  92 E5        30.07R WCI  25
DILLON         LGT SNOW  30  27  89 S12       30.10R WCI  20
W YELLOWSTONE  CLOUDY    32  32 100 SW8       30.13R WCI  25
* THREE FORKS  CLEAR     32  12  43 N/A        N/A
* BOULDER HILL N/A       34  27  76 S6         N/A   WCI  29
* MONIDA PASS  N/A       25  25 100 E2         N/A
* RAYNOLDS PAS N/A       29  15  56 S6         N/A   WCI  23
* WHITEHALL    N/A       36  30  79 SE2G12     N/A
* WISE RIVER   N/A       29  27  92 W3         N/A
$$

MTZ009>010-012-014-046-048-049-054-221300-
EAST SLOPES AND CENTRAL MONTANA
CITY           SKY/WX    TMP DP  RH WIND       PRES   REMARKS
CUT BANK       CLEAR     43  32  65 W18       29.88S
GREAT FALLS    CLEAR     41  34  76 SW13      29.93S
HELENA         CLEAR     39  30  70 SW7       30.03R WCI  34
MALMSTROM AFB  CLEAR     39  34  82 SW15      29.95S WCI  31
* CONRAD       CLEAR     39  36  89 S7         N/A   WCI  34
* DEARBORN     N/A       47  33  58 S6G14      N/A
* EAST GLACIER N/A       42  29  60 W26G38     N/A
* MONARCH      N/A       38  24  57 SW11G18    N/A   WCI  31
* PENDROY      N/A       38  26  62 NW7        N/A   WCI  33
* ROGERS PASS  N/A       37  33  85 SE14G26    N/A   WCI  28
* SAINT MARY   N/A       45  33  63 SW8G22     N/A
* SWEET GRASS  N/A       43  32  65 SW19G24    N/A
$$

MTZ011-013-016-021-035-040-045-047-050-051-221300-
NORTH CENTRAL MONTANA
CITY           SKY/WX    TMP DP  RH WIND       PRES   REMARKS
HAVRE          MOCLDY    46  37  71 SW20      29.86R
LEWISTOWN      FAIR      37  30  76 SW6       29.96S WCI  32
* CHINOOK      MOCLDY    50  37  61 SW16G22   29.85R
* FORT BENTON  CLEAR     43  34  71 SW8       29.93S
* CHESTER      N/A       38  33  82 SW3        N/A
* DENTON       N/A       40  32  73 SW12       N/A   WCI  33
* GEYSER       N/A       42  29  60 SW16G26    N/A
* JUDITH GAP   N/A       41  31  68 W20G28     N/A
* LOMA         N/A       43  35  73 SW5G10     N/A
$$

MTZ017>020-022>027-061-062-221300-
NORTHEAST MONTANA
CITY           SKY/WX    TMP DP  RH WIND       PRES   REMARKS
GLASGOW        CLOUDY    50  39  66 W12       29.80R
GLENDIVE       CLEAR     46  39  77 W14       29.89R
JORDAN         PTCLDY    48  36  63 W12       29.88R
SIDNEY         PTCLDY    48  43  83 SW14G21   29.83R
WOLF POINT     MOCLDY    50  43  77 W12       29.81R
* BEAVER HILL  N/A       47  41  80 W15        N/A
* CIRCLE       N/A       47  41  80 SW7        N/A
* NAVAJO       N/A       45  42  89 W16        N/A
$$

MTZ028>042-056>058-221300-
SOUTHCENTRAL AND SOUTHEAST MONTANA
CITY           SKY/WX    TMP DP  RH WIND       PRES   REMARKS
BAKER          CLEAR     45  39  80 W24       29.90R
BILLINGS       CLEAR     48  28  46 W24G31    29.99R
LIVINGSTON     CLEAR     43  27  53 W18G25    30.03S
MILES CITY     CLEAR     43  36  76 W9        29.93R
* LAUREL APT   CLEAR     48  25  41 W17G29     N/A
* ROUNDUP APT  CLEAR     45  28  51 SW10       N/A
* ALZADA       N/A       42  35  76 W6         N/A
* HYSHAM       N/A       43  30  60 W4G9       N/A
* LAME DEER    N/A       38  31  76 W8         N/A   WCI  32
* REED POINT   N/A       45  27  49 W6         N/A
* ROSCOE HILL  N/A       41  16  36 NW2        N/A
$$

REGIONAL REPORTS...DAKOTAS
CITY           SKY/WX    TMP DP  RH WIND       PRES   REMARKS
WILLISTON      MOCLDY    52  43  72 W12G22    29.79R
DICKINSON      CLOUDY    50  45  83 W17G29    29.82R
BEACH          N/A       46  45  96 W16G21    29.87R
CROSBY         CLEAR     50  45  83 SW16G22   29.73R
TIOGA          CLEAR     48  48 100 W15G22    29.78R
BISMARCK       MOCLDY    57  46  67 W10       29.77R
GRAND FORKS    PTCLDY    54  43  67 S22G29    29.80F
FARGO          PTCLDY    55  41  59 S24G35    29.87R
BUFFALO SD     CLOUDY    48  39  71 W16       29.85R
RAPID CITY     CLOUDY    55  34  45 N15G26    29.91R
$$

REGIONAL REPORTS...WYOMING/IDAHO/WASHINGTON
CITY           SKY/WX    TMP DP  RH WIND       PRES   REMARKS
GILLETTE       PTCLDY    37  30  76 W10       30.01R WCI  30
SHERIDAN       CLEAR     36  27  70 SW7       30.01R WCI  30
CODY           PTCLDY   N/A N/A N/A NW6       30.03R
YELLOWSTONE LA PTCLDY    27  25  92 CALM      30.16R
SALMON         FAIR     N/A N/A N/A N/A        N/A
MULLAN PASS    FOG       32  32 100 S9        30.00S VSB 1 1/4 WCI  24
SAND POINT     PTCLDY    41  41 100 CALM      29.97F
SPOKANE        MOCLDY    45  37  74 SE12      29.92F

$$




USA.gov is the U.S. government's official web portal to all federal, state and local government web resources and services.